Nashua, NH

5:48 PM EDT on March 28, 2017 (GMT -0400)
Boire

Weather History for KASH - May, 2013

Change the Weather History Date:

Tuesday, May 28, 2013

  Actual Average Record
Temperature  
Mean Temperature 57 °F -  
Max Temperature 73 °F 73 °F 93 °F (2016)
Min Temperature 41 °F 46 °F 32 °F (1968)
Degree Days  
Heating Degree Days 8    
Growing Degree Days 7 (Base 50)    
Moisture  
Dew Point 41 °F    
Average Humidity 57    
Maximum Humidity 90    
Minimum Humidity 27    
Precipitation  
Precipitation 0.00 in - - ()
Sea Level Pressure  
Sea Level Pressure 30.95 in    
Wind  
Wind Speed 2 mph (ESE)    
Max Wind Speed 15 mph    
Max Gust Speed -    
Visibility 10 miles    
Events      
Averages and records for this station are not official NWS values.
T = Trace of Precipitation, MM = Missing Value Source: NWS Daily Summary

Daily Weather History Graph

Daily Weather History Graph

Search for Another Location

Airport or City:

Trip Planner

Search our weather history database for the weather conditions in past years. The results will help you decide how hot, cold, wet, or windy it might be!

Date:

Astronomy

May. 28, 2013 Rise Set
Actual Time 5:12 AM EDT 8:14 PM EDT
Civil Twilight 4:38 AM EDT 8:48 PM EDT
Nautical Twilight 3:55 AM EDT 9:32 PM EDT
Astronomical Twilight 3:04 AM EDT 10:23 PM EDT
Moon 11:32 PM EDT 8:59 AM EDT
Length of Visible Light 16h 10m
Length of Day
15h 02m
Waning Gibbous, 83% of the Moon is Illuminated
May 28
Waning Gibbous
May 31
Last Quarter
Jun 8
New
Jun 16
First Quarter
Jun 23
Full

Hourly Weather History & Observations

Time (EDT) Temp. Windchill Dew Point Humidity Pressure Visibility Wind Dir Wind Speed Gust Speed Precip Events Conditions
12:51 AM 48.9 °F - 43.0 °F 80% 30.95 in 10.0 mi Calm Calm - N/A   Clear
1:51 AM 46.9 °F - 43.0 °F 86% 30.95 in 10.0 mi Calm Calm - N/A   Clear
2:51 AM 43.9 °F - 41.0 °F 90% 30.95 in 10.0 mi Calm Calm - N/A   Clear
3:51 AM 43.9 °F - 39.9 °F 86% 30.96 in 10.0 mi Calm Calm - N/A   Clear
4:51 AM 41.9 °F - 38.8 °F 89% 30.96 in 10.0 mi Calm Calm - N/A   Clear
5:51 AM 41.9 °F - 38.8 °F 89% 30.98 in 10.0 mi Calm Calm - N/A   Clear
6:51 AM 45.9 °F 43.6 °F 39.9 °F 80% 30.99 in 10.0 mi NNW 4.6 mph - N/A   Clear
7:51 AM 50.9 °F - 41.9 °F 71% 30.99 in 10.0 mi Calm Calm - N/A   Clear
8:51 AM 59.9 °F - 43.0 °F 54% 30.99 in 10.0 mi Calm Calm - N/A   Clear
9:51 AM 63.9 °F - 37.9 °F 38% 30.99 in 10.0 mi ESE 4.6 mph - N/A   Clear
10:51 AM 68.0 °F - 36.9 °F 32% 30.98 in 10.0 mi ESE 8.1 mph - N/A   Clear
11:51 AM 68.9 °F - 36.9 °F 31% 30.98 in 10.0 mi ESE 5.8 mph - N/A   Clear
12:51 PM 70.0 °F - 36.9 °F 30% 30.96 in 10.0 mi Variable 4.6 mph - N/A   Clear
1:51 PM 72.9 °F - 38.8 °F 29% 30.94 in 10.0 mi Variable 5.8 mph - N/A   Clear
2:51 PM 73.9 °F - 37.9 °F 27% 30.93 in 10.0 mi Variable 3.5 mph - N/A   Clear
3:51 PM 73.9 °F - 37.9 °F 27% 30.92 in 10.0 mi Calm Calm - N/A   Clear
4:51 PM 73.9 °F - 41.0 °F 30% 30.91 in 10.0 mi East 15.0 mph - N/A   Clear
5:51 PM 70.0 °F - 39.9 °F 33% 30.91 in 10.0 mi SE 10.4 mph - N/A   Clear
6:51 PM 68.0 °F - 39.9 °F 36% 30.90 in 10.0 mi ESE 9.2 mph - N/A   Clear
7:51 PM 64.9 °F - 43.9 °F 46% 30.91 in 10.0 mi SE 6.9 mph - N/A   Clear
8:51 PM 61.9 °F - 46.9 °F 58% 30.91 in 10.0 mi Calm Calm - N/A   Clear
9:51 PM 57.9 °F - 47.8 °F 69% 30.92 in 10.0 mi Calm Calm - N/A   Clear
10:51 PM 55.9 °F - 48.9 °F 77% 30.93 in 10.0 mi Calm Calm - N/A   Clear
11:51 PM 54.0 °F - 48.9 °F 83% 30.92 in 10.0 mi Calm Calm - N/A   Clear